Location: Gorze? G�rny
(49.8500°N, 19.5000°E)
Time: 11:14:44
(UTC+00:00)

COBE Rocket - Pass Details

Date: 13 May 2021
Orbit: 679 x 782 km, 97.1° (Epoch: 22 June)

Event Time Altitude Azimuth Distance (km) Brightness Sun altitude
Exits shadow 22:29:16 48° 196° (SSW) 998 4.1 -21.5°
Maximum altitude 22:30:36 68° 260° (W) 830 4.0 -21.5°
Drops below altitude 10° 22:35:46 10° 343° (NNW) 2,343 7.6 -21.5°
Sets 22:38:08 0° 346° (NNW) 3,281 8.7 -21.5°
